This is the latest recevied weather packets stored in our database for station/object N0FDH. If no packets are shown the sender has not sent any weather packets the latest 10 day(s).
| Time | Temp. | Humidity | Pressure | Rain* | Wind** | Luminosity | Snow |
|---|---|---|---|---|---|---|---|
| 1777655918 | 7.78° C | 43% | 1018.6 hPa | 0 mm | - | 673 W/m² | - |
| 1777655615 | 8.33° C | 42% | 1018.5 hPa | 0 mm | - | 712 W/m² | - |
| 1777655312 | 7.78° C | 39% | 1018.4 hPa | 0 mm | - | 768 W/m² | - |
| 1777655009 | 7.22° C | 41% | 1018.7 hPa | 0 mm | - | 762 W/m² | - |
| 1777654706 | 7.22° C | 41% | 1018.7 hPa | 0 mm | - | 725 W/m² | - |
| 1777654404 | 7.78° C | 40% | 1018.6 hPa | 0 mm | - | 729 W/m² | - |
| 1777654101 | 7.22° C | 40% | 1018.6 hPa | 0 mm | - | 672 W/m² | - |
| 1777653799 | 6.67° C | 41% | 1018.7 hPa | 0 mm | - | 677 W/m² | - |
| 1777653495 | 6.67° C | 41% | 1018.6 hPa | 0 mm | - | 120 W/m² | - |
| 1777653192 | 6.67° C | 44% | 1018.6 hPa | 0 mm | - | 542 W/m² | - |
| 1777652889 | 7.22° C | 44% | 1018.7 hPa | 0 mm | - | 164 W/m² | - |
| 1777652585 | 7.22° C | 41% | 1018.5 hPa | 0 mm | - | 630 W/m² | - |
| 1777652281 | 6.67° C | 43% | 1018.4 hPa | 0 mm | - | 618 W/m² | - |
| 1777651979 | 5.56° C | 45% | 1018.5 hPa | 0 mm | - | 621 W/m² | - |
| 1777651675 | 6.11° C | 45% | 1018.7 hPa | 0 mm | - | 190 W/m² | - |
| 1777651372 | 6.67° C | 43% | 1018.7 hPa | 0 mm | - | 116 W/m² | - |
| 1777651070 | 6.67° C | 43% | 1018.5 hPa | 0 mm | - | 676 W/m² | - |
| 1777650767 | 5.56° C | 45% | 1018.7 hPa | 0 mm | - | 618 W/m² | - |
| 1777650463 | 6.11° C | 44% | 1018.7 hPa | 0 mm | - | 114 W/m² | - |
| 1777650160 | 6.67° C | 43% | 1018.8 hPa | 0 mm | - | 608 W/m² | - |
| 1777649858 | 6.67° C | 47% | 1018.7 hPa | 0 mm | - | 532 W/m² | - |
| 1777649555 | 6.11° C | 45% | 1018.7 hPa | 0 mm | - | 518 W/m² | - |
| 1777649252 | 6.11° C | 47% | 1018.8 hPa | 0 mm | - | 507 W/m² | - |
| 1777648948 | 6.11° C | 45% | 1018.6 hPa | 0 mm | - | 494 W/m² | - |
| 1777648646 | 6.11° C | 46% | 1018.7 hPa | 0 mm | - | 489 W/m² | - |
* Rain latest hour (hover to see other rain measurements)
** Current wind speed in m/s (hover to see current wind gust speed)